1510934400.35,5421,8.31,73562.3,-3.29,-4.09,-4.09,0,*6A
1510934401.57,5422,8.31,73564.8,-3.33,-4.13,-4.13,0,*62
1510934402.79,5423,8.31,73562.0,-3.33,-4.17,-4.09,0,*6C
1510934403.99,5424,8.31,73562.5,-3.35,-4.17,-4.13,0,*66
1510934405.21,5425,8.31,73562.5,-3.33,-4.17,-4.13,0,*61
1510934406.42,5426,8.31,73562.0,-3.29,-4.13,-4.09,0,*66
1510934407.64,5427,8.31,73562.8,-3.29,-4.13,-4.09,0,*67
1510934408.86,5428,8.31,73564.8,-3.29,-4.21,-4.09,0,*69
1510934410.09,5429,8.31,73566.8,-3.29,-4.25,-4.21,0,*66
1510934411.31,5430,8.38,73566.8,-3.29,-4.33,-4.21,0,*69
1510934412.53,5431,8.31,73562.5,-3.29,-4.13,-4.13,0,*6B
1510934413.75,5432,8.31,73560.5,-3.29,-4.13,-4.21,0,*69
1510934414.94,5433,8.38,73564.8,-3.27,-4.13,-4.13,0,*67
1510934416.16,5434,8.31,73562.8,-3.33,-4.17,-4.17,0,*65
1510934417.38,5435,8.38,73564.8,-3.33,-4.17,-4.13,0,*60
1510934418.6,5436,8.31,73560.8,-3.33,-4.17,-4.13,0,*63
1510934419.82,5437,8.31,73560.5,-3.33,-4.25,-4.17,0,*67
1510934421.03,5438,8.38,73562.0,-3.33,-4.17,-4.17,0,*69
1510934422.25,5439,8.38,73566.0,-3.33,-4.29,-4.25,0,*64
1510934423.47,5440,8.38,73562.0,-3.33,-4.25,-4.17,0,*67
1510934424.69,5441,8.31,73562.3,-3.33,-4.17,-4.17,0,*67
1510934425.91,5442,8.31,73560.8,-3.33,-4.25,-4.17,0,*65
1510934427.12,5443,8.38,73560.5,-3.33,-4.17,-4.17,0,*65
1510934428.34,5444,8.31,73562.3,-3.29,-4.13,-4.13,0,*69
1510934429.55,5445,8.38,73560.8,-3.29,-4.13,-4.09,0,*63
1510934430.78,5446,8.38,73562.5,-3.33,-4.13,-4.13,0,*60
1510934431.97,5447,8.38,73560.5,-3.35,-4.17,-4.13,0,*63
1510934433.2,5448,8.38,73562.5,-3.33,-4.25,-4.13,0,*6B
1510934434.39,5449,8.31,73558.5,-3.35,-4.17,-4.13,0,*6D
1510934435.61,5450,8.38,73560.8,-3.33,-4.17,-4.13,0,*63
1510934436.81,5451,8.31,73560.0,-3.35,-4.17,-4.09,0,*6F
1510934438.03,5452,8.31,73562.3,-3.33,-4.13,-4.09,0,*6E
1510934439.25,5453,8.31,73560.5,-3.33,-4.13,-4.13,0,*64
1510934440.47,5454,8.38,73564.8,-3.33,-4.13,-4.09,0,*68
1510934441.69,5455,8.38,73562.5,-3.33,-4.13,-4.13,0,*62
1510934442.91,5456,8.31,73562.3,-3.33,-4.17,-4.13,0,*65
1510934444.13,5457,8.31,73562.0,-3.33,-4.17,-4.13,0,*64
1510934445.36,5458,8.38,73562.5,-3.33,-4.25,-4.13,0,*6A
1510934446.58,5459,8.38,73562.8,-3.33,-4.17,-4.13,0,*6A
1510934447.79,5460,8.31,73558.5,-3.29,-4.13,-4.09,0,*64
1510934449.01,5461,8.38,73566.3,-3.33,-4.17,-4.13,0,*61
1510934450.23,5462,8.38,73566.3,-3.33,-4.25,-4.17,0,*67
1510934451.45,5463,8.38,73564.3,-3.33,-4.17,-4.17,0,*67
1510934452.66,5464,8.38,73564.5,-3.33,-4.17,-4.17,0,*60
1510934453.88,5465,8.31,73560.3,-3.33,-4.25,-4.17,0,*60
1510934455.1,5466,8.31,73560.3,-3.33,-4.17,-4.17,0,*62
1510934456.32,5467,8.31,73562.5,-3.33,-4.17,-4.13,0,*67
1510934457.54,5468,8.31,73560.8,-3.33,-4.25,-4.13,0,*69
1510934458.76,5469,8.31,73560.5,-3.33,-4.17,-4.13,0,*69
1510934459.98,5470,8.31,73564.8,-3.33,-4.17,-4.13,0,*61
1510934461.2,5471,8.31,73564.0,-3.33,-4.17,-4.13,0,*60
1510934462.42,5472,8.38,73564.3,-3.33,-4.17,-4.13,0,*63
1510934463.65,5473,8.38,73564.3,-3.33,-4.17,-4.13,0,*62
1510934464.86,5474,8.31,73560.3,-3.29,-4.13,-4.09,0,*61
1510934466.08,5475,8.38,73562.5,-3.29,-4.13,-4.09,0,*60
1510934467.29,5476,8.31,73560.8,-3.29,-4.13,-4.09,0,*63
1510934468.51,5477,8.38,73564.8,-3.29,-4.13,-4.09,0,*62
1510934469.72,5478,8.31,73562.3,-3.29,-4.13,-4.09,0,*6D
1510934470.94,5479,8.31,73562.8,-3.29,-4.21,-4.13,0,*66
1510934472.16,5480,8.31,73562.3,-3.33,-4.17,-4.17,0,*6A
1510934473.35,5481,8.31,73562.0,-3.35,-4.17,-4.17,0,*6D
1510934474.57,5482,8.31,73562.8,-3.33,-4.17,-4.09,0,*67
1510934475.79,5483,8.31,73562.5,-3.33,-4.13,-4.13,0,*69
1510934477.01,5484,8.38,73566.3,-3.33,-4.13,-4.13,0,*6E
1510934478.23,5485,8.31,73562.5,-3.29,-4.09,-4.05,0,*68
1510934479.45,5486,8.31,73560.8,-3.33,-4.17,-4.13,0,*68
1510934480.67,5487,8.31,73560.3,-3.33,-4.17,-4.13,0,*69
1510934481.89,5488,8.31,73560.0,-3.33,-4.17,-4.13,0,*66
1510934483.11,5489,8.38,73562.5,-3.33,-4.17,-4.13,0,*67
1510934484.33,5490,8.38,73564.5,-3.33,-4.17,-4.13,0,*6F
1510934485.55,5491,8.31,73560.0,-3.33,-4.17,-4.13,0,*6E
1510934486.77,5492,8.31,73562.8,-3.29,-4.13,-4.09,0,*69
1510934487.98,5493,8.38,73566.3,-3.29,-4.13,-4.05,0,*64
1510934489.2,5494,8.38,73564.3,-3.29,-4.13,-4.09,0,*6F
1510934490.41,5495,8.38,73564.0,-3.29,-4.09,-4.05,0,*69
1510934491.63,5496,8.38,73564.8,-3.29,-4.09,-4.09,0,*66
1510934492.84,5497,8.38,73564.5,-3.29,-4.05,-4.05,0,*67
1510934494.06,5498,8.38,73564.3,-3.29,-4.09,-4.09,0,*68
1510934495.27,5499,8.31,73562.5,-3.29,-4.09,-4.09,0,*69
1510934496.49,5500,8.31,73560.3,-3.29,-4.13,-4.09,0,*63
1510934497.7,5501,8.31,73560.0,-3.29,-4.13,-4.09,0,*62
1510934498.92,5502,8.38,73562.8,-3.33,-4.25,-4.17,0,*60
1510934500.14,5503,8.38,73562.5,-3.33,-4.17,-4.09,0,*6F
1510934501.36,5504,8.31,73560.8,-3.33,-4.13,-4.09,0,*6C
1510934502.57,5505,8.38,73562.5,-3.29,-4.09,-4.09,0,*6D
1510934503.78,5506,8.38,73564.3,-3.29,-4.09,-4.09,0,*6E
1510934505.0,5507,8.31,73562.0,-3.29,-4.13,-4.13,0,*6F
1510934506.2,5508,8.31,73562.8,-3.27,-4.21,-4.21,0,*6E
1510934507.42,5509,8.31,73562.3,-3.29,-4.13,-4.13,0,*61
1510934508.64,5510,8.31,73562.0,-3.29,-4.13,-4.13,0,*69
1510934509.86,5511,8.38,73564.0,-3.29,-4.13,-4.13,0,*68
1510934511.07,5512,8.38,73564.8,-3.29,-4.13,-4.09,0,*60
1510934512.29,5513,8.31,73562.0,-3.29,-4.13,-4.05,0,*6D
1510934513.5,5514,8.31,73562.3,-3.29,-4.13,-4.09,0,*66
1510934514.72,5515,8.38,73564.8,-3.29,-4.13,-4.09,0,*67
1510934515.93,5516,8.31,73560.0,-3.29,-4.09,-4.09,0,*6F
1510934517.12,5517,8.31,73562.3,-3.27,-4.09,-4.09,0,*60
1510934518.34,5518,8.38,73562.8,-3.29,-4.09,-4.05,0,*6D
1510934519.52,5519,8.31,73562.8,-3.27,-4.09,-4.09,0,*6E
1510934520.74,5520,8.38,73566.8,-3.29,-4.09,-4.05,0,*66
1510934521.95,5521,8.31,73560.0,-3.29,-4.09,-4.09,0,*6B
1510934523.14,5522,8.31,73562.0,-3.27,-4.09,-4.09,0,*66
1510934524.36,5523,8.31,73558.5,-3.29,-4.09,-4.09,0,*69
1510934525.57,5524,8.38,73564.3,-3.29,-4.09,-4.09,0,*6E
1510934526.79,5525,8.31,73556.3,-3.29,-4.13,-4.13,0,*6F
1510934528.0,5526,8.31,73560.3,-3.33,-4.17,-4.17,0,*67
1510934529.22,5527,8.31,73560.3,-3.33,-4.17,-4.17,0,*66
1510934530.43,5528,8.38,73564.8,-3.29,-4.13,-4.13,0,*62
1510934531.65,5529,8.31,73560.3,-3.29,-4.13,-4.09,0,*68
1510934532.86,5530,8.31,73562.3,-3.29,-4.13,-4.09,0,*60
1510934534.08,5531,8.38,73562.0,-3.29,-4.13,-4.09,0,*61
1510934535.3,5532,8.31,73562.0,-3.33,-4.17,-4.13,0,*66
1510934536.51,5533,8.31,73560.5,-3.29,-4.13,-4.09,0,*63
1510934537.73,5534,8.31,73556.8,-3.29,-4.13,-4.09,0,*64
1510934538.94,5535,8.31,73562.0,-3.29,-4.13,-4.05,0,*69
1510934540.16,5536,8.38,73560.8,-3.29,-4.13,-4.09,0,*66
1510934541.37,5537,8.31,73558.5,-3.29,-4.13,-4.09,0,*67
1510934542.6,5538,8.38,73562.5,-3.33,-4.13,-4.13,0,*68
1510934543.82,5539,8.31,73560.0,-3.33,-4.13,-4.13,0,*69
1510934545.03,5540,8.31,73564.0,-3.29,-4.09,-4.09,0,*6C
1510934546.25,5541,8.31,73562.8,-3.29,-4.09,-4.09,0,*6D
1510934547.46,5542,8.31,73562.8,-3.29,-4.13,-4.09,0,*65
1510934548.66,5543,8.31,73562.5,-3.27,-4.21,-4.21,0,*61
1510934549.89,5544,8.31,73562.5,-3.29,-4.21,-4.21,0,*68
1510934551.12,5545,8.38,73560.5,-3.29,-4.21,-4.13,0,*68
1510934552.33,5546,8.31,73562.0,-3.29,-4.13,-4.13,0,*6A
1510934553.56,5547,8.31,73562.0,-3.29,-4.21,-4.21,0,*6B
1510934554.78,5548,8.38,73560.0,-3.33,-4.25,-4.17,0,*6E
1510934556.0,5549,8.31,73562.8,-3.33,-4.25,-4.17,0,*6F
1510934557.22,5550,8.31,73560.0,-3.33,-4.29,-4.25,0,*6A
1510934558.44,5551,8.31,73560.0,-3.33,-4.17,-4.17,0,*67
1510934559.66,5552,8.31,73560.0,-3.33,-4.25,-4.25,0,*64
1510934560.89,5553,8.31,73560.5,-3.33,-4.29,-4.25,0,*69
1510934562.11,5554,8.31,73562.0,-3.33,-4.25,-4.17,0,*63
1510934563.32,5555,8.31,73558.3,-3.33,-4.17,-4.17,0,*63
1510934564.55,5556,8.31,73556.5,-3.33,-4.25,-4.25,0,*60
1510934565.76,5557,8.31,73552.3,-3.33,-4.29,-4.17,0,*6C
1510934566.98,5558,8.31,73558.3,-3.33,-4.17,-4.25,0,*6F
1510934568.21,5559,8.38,73564.3,-3.33,-4.25,-4.25,0,*6F
1510934569.44,5560,8.31,73558.5,-3.33,-4.25,-4.25,0,*65
1510934570.65,5561,8.31,73558.8,-3.33,-4.17,-4.17,0,*64
1510934571.87,5562,8.31,73562.5,-3.33,-4.25,-4.17,0,*66
1510934573.09,5563,8.31,73562.8,-3.33,-4.17,-4.17,0,*66
1510934574.3,5564,8.38,73562.8,-3.33,-4.17,-4.17,0,*61
1510934575.52,5565,8.38,73560.8,-3.33,-4.17,-4.17,0,*60
1510934576.73,5566,8.31,73562.0,-3.33,-4.17,-4.17,0,*63
1510934577.95,5567,8.38,73564.8,-3.33,-4.17,-4.17,0,*62
1510934579.16,5568,8.31,73560.8,-3.29,-4.13,-4.13,0,*66
1510934580.38,5569,8.31,73560.5,-3.33,-4.13,-4.17,0,*68
1510934581.59,5570,8.31,73560.5,-3.33,-4.17,-4.17,0,*64
1510934582.81,5571,8.38,73560.0,-3.33,-4.17,-4.17,0,*65
1510934584.02,5572,8.31,73560.3,-3.33,-4.17,-4.17,0,*66
1510934585.25,5573,8.38,73562.3,-3.33,-4.17,-4.25,0,*66
1510934586.47,5574,8.31,73558.3,-3.33,-4.25,-4.25,0,*60
1510934587.69,5575,8.31,73560.0,-3.33,-4.17,-4.17,0,*61
1510934588.9,5576,8.31,73558.8,-3.33,-4.17,-4.17,0,*62
1510934590.13,5577,8.31,73558.5,-3.33,-4.25,-4.25,0,*63
1510934591.35,5578,8.31,73556.8,-3.29,-4.25,-4.21,0,*63
1510934592.57,5579,8.38,73560.0,-3.29,-4.25,-4.13,0,*63
1510934593.79,5580,8.38,73562.3,-3.33,-4.17,-4.17,0,*6B
1510934595.0,5581,8.31,73556.0,-3.33,-4.17,-4.17,0,*6A
1510934596.23,5582,8.31,73560.3,-3.33,-4.25,-4.25,0,*69
1510934597.45,5583,8.38,73560.3,-3.33,-4.37,-4.25,0,*6B
1510934598.67,5584,8.31,73558.0,-3.33,-4.25,-4.25,0,*6F
1510934599.87,5585,8.31,73562.0,-3.35,-4.25,-4.25,0,*68
1510934601.09,5586,8.38,73562.3,-3.33,-4.17,-4.17,0,*6D
1510934602.31,5587,8.31,73556.5,-3.33,-4.29,-4.25,0,*60
1510934603.53,5588,8.31,73558.8,-3.33,-4.29,-4.25,0,*6F
1510934604.73,5589,8.38,73562.5,-3.35,-4.29,-4.17,0,*69
1510934605.95,5590,8.31,73556.3,-3.33,-4.25,-4.17,0,*6B
1510934607.17,5591,8.31,73556.8,-3.33,-4.25,-4.17,0,*6A
1510934608.38,5592,8.38,73560.0,-3.33,-4.17,-4.17,0,*68
1510934609.6,5593,8.31,73560.3,-3.33,-4.25,-4.17,0,*68
1510934610.81,5594,8.38,73560.5,-3.33,-4.17,-4.17,0,*6E
1510934612.03,5595,8.31,73562.3,-3.33,-4.25,-4.17,0,*6E
1510934613.25,5596,8.31,73556.8,-3.33,-4.17,-4.17,0,*6C
1510934614.46,5597,8.31,73558.3,-3.33,-4.17,-4.17,0,*6D
1510934615.68,5598,8.38,73562.8,-3.33,-4.17,-4.13,0,*66
1510934616.91,5599,8.38,73560.0,-3.33,-4.17,-4.25,0,*62
1510934618.12,5600,8.31,73562.3,-3.33,-4.25,-4.17,0,*61
1510934619.35,5601,8.31,73560.0,-3.33,-4.17,-4.13,0,*65
1510934620.56,5602,8.31,73562.3,-3.33,-4.17,-4.17,0,*62
1510934621.78,5603,8.38,73560.8,-3.33,-4.25,-4.17,0,*62
1510934622.99,5604,8.38,73562.8,-3.33,-4.17,-4.17,0,*64
1510934624.21,5605,8.31,73556.8,-3.33,-4.17,-4.17,0,*65
1510934625.43,5606,8.38,73560.8,-3.33,-4.25,-4.17,0,*67
1510934626.65,5607,8.38,73562.0,-3.33,-4.25,-4.17,0,*66
1510934627.86,5608,8.31,73556.8,-3.33,-4.17,-4.17,0,*68
1510934629.08,5609,8.31,73560.8,-3.33,-4.17,-4.17,0,*69
1510934630.29,5610,8.31,73560.3,-3.33,-4.13,-4.17,0,*65
1510934631.51,5611,8.31,73562.5,-3.33,-4.25,-4.17,0,*61
1510934632.73,5612,8.31,73562.3,-3.33,-4.17,-4.17,0,*63
1510934633.94,5613,8.38,73564.8,-3.33,-4.17,-4.17,0,*62
1510934635.16,5614,8.31,73560.3,-3.29,-4.13,-4.13,0,*6E
1510934636.37,5615,8.38,73560.8,-3.33,-4.17,-4.17,0,*64
1510934637.59,5616,8.31,73562.0,-3.33,-4.25,-4.17,0,*66
1510934638.81,5617,8.38,73560.5,-3.33,-4.17,-4.25,0,*67
1510934640.03,5618,8.31,73556.5,-3.33,-4.25,-4.17,0,*68
1510934641.26,5619,8.38,73560.0,-3.33,-4.29,-4.25,0,*64
1510934642.48,5620,8.38,73562.8,-3.33,-4.29,-4.25,0,*6E
1510934643.7,5621,8.31,73558.5,-3.33,-4.29,-4.25,0,*6F
1510934644.93,5622,8.31,73558.5,-3.33,-4.25,-4.25,0,*60
1510934646.15,5623,8.31,73558.8,-3.33,-4.29,-4.17,0,*6C
1510934647.37,5624,8.31,73558.5,-3.33,-4.29,-4.25,0,*6A
1510934648.59,5625,8.38,73562.0,-3.33,-4.29,-4.25,0,*6B
1510934649.81,5626,8.31,73556.8,-3.33,-4.29,-4.29,0,*64
1510934651.03,5627,8.31,73560.5,-3.33,-4.37,-4.37,0,*65
1510934652.25,5628,8.31,73556.8,-3.33,-4.37,-4.29,0,*65
1510934653.44,5629,8.31,73556.8,-3.35,-4.37,-4.29,0,*62
1510934654.64,5630,8.31,73562.3,-3.35,-4.37,-4.41,0,*64
1510934655.85,5631,8.31,73560.0,-3.33,-4.37,-4.37,0,*62
1510934657.08,5632,8.31,73556.3,-3.33,-4.29,-4.29,0,*61
1510934658.27,5633,8.31,73558.8,-3.35,-4.29,-4.29,0,*66
1510934659.5,5634,8.31,73558.0,-3.33,-4.29,-4.37,0,*68
1510934660.69,5635,8.31,73556.8,-3.35,-4.49,-4.37,0,*69
1510934661.91,5636,8.31,73558.8,-3.33,-4.41,-4.37,0,*64
1510934663.13,5637,8.31,73556.0,-3.33,-4.49,-4.37,0,*6D
1510934664.35,5638,8.38,73562.3,-3.33,-4.41,-4.37,0,*6A
1510934665.57,5639,8.31,73560.5,-3.33,-4.41,-4.37,0,*6B
1510934666.79,5640,8.31,73556.8,-3.33,-4.49,-4.29,0,*62
1510934667.99,5641,8.31,73556.0,-3.35,-4.41,-4.37,0,*62
1510934669.18,5642,8.31,73558.5,-3.35,-4.41,-4.37,0,*61
1510934670.4,5643,8.31,73560.5,-3.33,-4.41,-4.29,0,*69
1510934671.62,5644,8.31,73560.3,-3.33,-4.37,-4.37,0,*60
1510934672.84,5645,8.31,73560.0,-3.33,-4.37,-4.37,0,*61
1510934674.06,5646,8.31,73556.3,-3.33,-4.37,-4.41,0,*63
1510934675.25,5647,8.38,73562.0,-3.35,-4.41,-4.37,0,*64
1510934676.45,5648,8.31,73558.8,-3.35,-4.37,-4.37,0,*6A
1510934677.67,5649,8.31,73558.3,-3.33,-4.37,-4.37,0,*6D
1510934678.86,5650,8.31,73556.5,-3.35,-4.41,-4.37,0,*62
1510934680.06,5651,8.31,73556.3,-3.35,-4.41,-4.37,0,*63
1510934681.25,5652,8.38,73560.3,-3.35,-4.37,-4.37,0,*61
1510934682.45,5653,8.38,73562.3,-3.35,-4.41,-4.41,0,*60
1510934683.64,5654,8.31,73556.8,-3.35,-4.41,-4.37,0,*66
1510934684.84,5655,8.31,73556.5,-3.35,-4.29,-4.29,0,*66
1510934686.06,5656,8.31,73558.5,-3.33,-4.37,-4.37,0,*63
1510934687.25,5657,8.31,73552.8,-3.35,-4.37,-4.29,0,*6B
1510934688.47,5658,8.31,73556.8,-3.33,-4.49,-4.29,0,*6B
1510934689.67,5659,8.31,73558.5,-3.35,-4.37,-4.29,0,*65
1510934690.86,5660,8.31,73552.8,-3.35,-4.41,-4.29,0,*6E
1510934692.08,5661,8.31,73554.5,-3.33,-4.41,-4.37,0,*66
1510934693.28,5662,8.31,73556.0,-3.35,-4.41,-4.37,0,*63
1510934694.5,5663,8.31,73554.5,-3.33,-4.41,-4.37,0,*64
1510934695.72,5664,8.38,73556.5,-3.37,-4.41,-4.29,0,*68
1510934696.94,5665,8.31,73554.5,-3.37,-4.41,-4.33,0,*62
1510934698.16,5666,8.31,73556.3,-3.37,-4.33,-4.41,0,*61
1510934699.36,5667,8.38,73560.0,-3.35,-4.29,-4.29,0,*67
1510934700.58,5668,8.31,73558.3,-3.37,-4.33,-4.29,0,*61
1510934701.78,5669,8.31,73554.0,-3.35,-4.37,-4.29,0,*66
1510934702.98,5670,8.31,73554.3,-3.35,-4.29,-4.25,0,*6D
1510934704.17,5671,8.31,73558.8,-3.35,-4.37,-4.25,0,*63
1510934705.36,5672,8.31,73552.8,-3.35,-4.37,-4.25,0,*60
1510934706.56,5673,8.31,73554.0,-3.35,-4.29,-4.25,0,*6E
1510934707.76,5674,8.31,73554.0,-3.35,-4.25,-4.17,0,*64
1510934708.96,5675,8.31,73552.8,-3.35,-4.25,-4.25,0,*64
1510934710.16,5676,8.31,73552.5,-3.35,-4.29,-4.25,0,*6B
1510934711.36,5677,8.38,73558.5,-3.35,-4.29,-4.25,0,*6A
1510934712.56,5678,8.31,73556.5,-3.35,-4.25,-4.25,0,*69
1510934713.76,5679,8.38,73558.5,-3.35,-4.25,-4.25,0,*68
1510934714.96,5680,8.38,73558.8,-3.35,-4.25,-4.17,0,*6F
1510934716.15,5681,8.31,73552.8,-3.35,-4.25,-4.17,0,*6E
1510934717.34,5682,8.31,73552.0,-3.35,-4.17,-4.17,0,*6C
1510934718.54,5683,8.31,73556.0,-3.35,-4.25,-4.17,0,*6C
1510934719.77,5684,8.31,73554.5,-3.37,-4.21,-4.21,0,*68
1510934720.96,5685,8.31,73556.3,-3.35,-4.17,-4.17,0,*6B
1510934722.16,5686,8.31,73560.0,-3.35,-4.25,-4.25,0,*68
1510934723.35,5687,8.31,73558.8,-3.35,-4.29,-4.17,0,*64
1510934724.55,5688,8.38,73562.0,-3.35,-4.09,-4.13,0,*6D
1510934725.75,5689,8.38,73560.3,-3.35,-4.09,-4.13,0,*6C
1510934726.94,5690,8.38,73562.3,-3.35,-4.09,-4.13,0,*64
1510934728.14,5691,8.31,73556.5,-3.35,-4.09,-4.13,0,*65
1510934729.34,5692,8.31,73556.3,-3.35,-4.09,-4.13,0,*66
1510934730.54,5693,8.31,73562.5,-3.35,-4.17,-4.25,0,*6D
1510934731.73,5694,8.31,73560.8,-3.35,-4.37,-4.37,0,*6B
1510934732.92,5695,8.38,73560.0,-3.35,-4.37,-4.37,0,*6A
1510934734.12,5696,8.31,73558.3,-3.35,-4.29,-4.37,0,*66
1510934735.32,5697,8.38,73560.5,-3.35,-4.37,-4.29,0,*67
1510934736.53,5698,8.31,73558.3,-3.37,-4.41,-4.33,0,*60
1510934737.75,5699,8.31,73560.8,-3.37,-4.41,-4.41,0,*64
1510934738.97,5700,8.31,73558.0,-3.37,-4.41,-4.33,0,*60
1510934740.19,5701,8.31,73556.3,-3.37,-4.33,-4.33,0,*64
1510934741.41,5702,8.31,73556.5,-3.37,-4.41,-4.41,0,*67
1510934742.63,5703,8.31,73556.0,-3.37,-4.33,-4.33,0,*66
1510934743.85,5704,8.31,73558.3,-3.37,-4.33,-4.33,0,*61
1510934745.07,5705,8.31,73558.3,-3.37,-4.33,-4.29,0,*6B
1510934746.3,5706,8.31,73560.0,-3.37,-4.29,-4.29,0,*63
1510934747.52,5707,8.31,73558.5,-3.37,-4.29,-4.29,0,*62
1510934748.74,5708,8.31,73560.0,-3.37,-4.33,-4.41,0,*68
1510934749.96,5709,8.31,73560.3,-3.37,-4.33,-4.33,0,*6C
1510934751.18,5710,8.31,73558.0,-3.37,-4.33,-4.33,0,*64
1510934752.41,5711,8.31,73558.3,-3.37,-4.33,-4.29,0,*6E
1510934753.63,5712,8.31,73558.8,-3.37,-4.33,-4.29,0,*6D
1510934754.86,5713,8.31,73558.0,-3.37,-4.33,-4.29,0,*6C
1510934756.08,5714,8.31,73556.5,-3.37,-4.41,-4.29,0,*6E
1510934757.3,5715,8.31,73556.5,-3.37,-4.33,-4.29,0,*6A
1510934758.53,5716,8.31,73556.8,-3.37,-4.33,-4.21,0,*61
1510934759.73,5717,8.31,73560.0,-3.39,-4.29,-4.21,0,*65
1510934760.95,5718,8.31,73558.8,-3.37,-4.29,-4.29,0,*6C
1510934762.18,5719,8.31,73556.3,-3.37,-4.21,-4.21,0,*6D
1510934763.41,5720,8.31,73558.0,-3.37,-4.21,-4.21,0,*67
1510934764.64,5721,8.31,73558.3,-3.37,-4.21,-4.21,0,*66
1510934765.87,5722,8.31,73558.3,-3.37,-4.17,-4.21,0,*60
1510934767.09,5723,8.31,73556.0,-3.37,-4.29,-4.29,0,*64
1510934768.31,5724,8.31,73558.8,-3.37,-4.41,-4.33,0,*66
1510934769.52,5725,8.31,73558.5,-3.37,-4.45,-4.33,0,*63
1510934770.74,5726,8.31,73560.3,-3.37,-4.33,-4.29,0,*6A
1510934771.96,5727,8.31,73558.0,-3.37,-4.33,-4.33,0,*60
1510934773.18,5728,8.31,73558.0,-3.37,-4.29,-4.33,0,*64
1510934774.4,5729,8.38,73560.0,-3.37,-4.41,-4.41,0,*6E
1510934775.59,5730,8.38,73558.8,-3.39,-4.41,-4.33,0,*6D
1510934776.81,5731,8.38,73556.0,-3.37,-4.41,-4.41,0,*67
1510934778.03,5732,8.31,73558.3,-3.37,-4.41,-4.41,0,*64
1510934779.22,5733,8.38,73558.0,-3.35,-4.37,-4.37,0,*67
1510934780.44,5734,8.31,73558.5,-3.37,-4.41,-4.41,0,*62
1510934781.66,5735,8.31,73560.3,-3.37,-4.41,-4.41,0,*63
1510934782.84,5736,8.31,73558.3,-3.39,-4.45,-4.41,0,*6A
1510934784.02,5737,8.31,73558.8,-3.39,-4.45,-4.33,0,*6E
1510934785.23,5738,8.31,73558.3,-3.37,-4.45,-4.33,0,*6F
1510934786.45,5739,8.31,73560.3,-3.37,-4.41,-4.33,0,*6A
1510934787.67,5740,8.31,73560.5,-3.37,-4.33,-4.29,0,*6A
1510934788.88,5741,8.31,73560.3,-3.37,-4.45,-4.41,0,*64
1510934790.07,5742,8.31,73558.5,-3.39,-4.41,-4.33,0,*68
1510934791.29,5743,8.31,73558.0,-3.37,-4.33,-4.33,0,*62
1510934792.51,5744,8.31,73558.0,-3.37,-4.41,-4.29,0,*6B
1510934793.7,5745,8.38,73556.5,-3.39,-4.33,-4.33,0,*6A
1510934794.92,5746,8.31,73556.0,-3.37,-4.33,-4.33,0,*67
1510934796.11,5747,8.31,73554.5,-3.39,-4.41,-4.33,0,*6D
1510934797.33,5748,8.31,73554.8,-3.37,-4.33,-4.33,0,*69
1510934798.53,5749,8.31,73550.8,-3.39,-4.33,-4.29,0,*6D
1510934799.72,5750,8.31,73554.8,-3.39,-4.29,-4.21,0,*66
1510934800.92,5751,8.31,73556.0,-3.39,-4.33,-4.29,0,*64
1510934802.14,5752,8.31,73558.5,-3.37,-4.33,-4.29,0,*69
1510934803.37,5753,8.31,73558.8,-3.37,-4.33,-4.29,0,*68
1510934804.56,5754,8.31,73558.8,-3.39,-4.29,-4.33,0,*61
1510934805.78,5755,8.31,73556.5,-3.37,-4.33,-4.33,0,*65
1510934806.97,5756,8.31,73562.0,-3.39,-4.33,-4.29,0,*63
1510934808.17,5757,8.31,73558.8,-3.39,-4.29,-4.29,0,*69
1510934809.36,5758,8.31,73560.3,-3.39,-4.41,-4.29,0,*68
1510934810.55,5759,8.31,73556.3,-3.39,-4.33,-4.41,0,*62
1510934811.78,5760,8.31,73558.0,-3.37,-4.33,-4.21,0,*60
1510934813.0,5761,8.31,73558.3,-3.37,-4.29,-4.21,0,*6A
1510934814.23,5762,8.31,73562.0,-3.37,-4.21,-4.29,0,*69
1510934815.43,5763,8.38,73560.0,-3.39,-4.29,-4.21,0,*66
1510934816.63,5764,8.31,73556.8,-3.39,-4.21,-4.21,0,*69
1510934817.82,5765,8.31,73560.3,-3.39,-4.29,-4.29,0,*68
1510934819.05,5766,8.31,73556.8,-3.37,-4.21,-4.29,0,*6D
1510934820.25,5767,8.38,73560.3,-3.39,-4.21,-4.21,0,*6A
1510934821.44,5768,8.31,73556.5,-3.39,-4.29,-4.33,0,*6E
1510934822.64,5769,8.38,73562.8,-3.39,-4.29,-4.29,0,*64
1510934823.86,5770,8.31,73560.5,-3.37,-4.29,-4.29,0,*62
1510934825.05,5771,8.31,73558.3,-3.39,-4.29,-4.29,0,*6D
1510934826.28,5772,8.38,73560.8,-3.37,-4.21,-4.21,0,*60
1510934827.51,5773,8.31,73558.3,-3.37,-4.33,-4.29,0,*6A
1510934828.73,5774,8.38,73562.0,-3.37,-4.33,-4.33,0,*66
1510934829.92,5775,8.31,73558.3,-3.39,-4.33,-4.29,0,*62
1510934831.12,5776,8.38,73560.3,-3.39,-4.29,-4.29,0,*6A
1510934832.31,5777,8.31,73554.8,-3.39,-4.33,-4.29,0,*60
1510934833.53,5778,8.31,73558.0,-3.37,-4.33,-4.33,0,*6A
1510934834.75,5779,8.31,73558.0,-3.37,-4.29,-4.41,0,*65
1510934835.94,5780,8.31,73558.5,-3.39,-4.41,-4.41,0,*63
1510934837.12,5781,8.31,73558.3,-3.39,-4.45,-4.33,0,*63
1510934838.31,5782,8.31,73558.5,-3.39,-4.45,-4.41,0,*65
1510934839.51,5783,8.38,73562.0,-3.37,-4.45,-4.33,0,*6F
1510934840.73,5784,8.31,73560.5,-3.37,-4.45,-4.33,0,*68
1510934841.92,5785,8.31,73558.3,-3.39,-4.33,-4.33,0,*66
1510934843.11,5786,8.31,73556.8,-3.39,-4.41,-4.29,0,*6B
1510934844.3,5787,8.31,73558.3,-3.39,-4.33,-4.29,0,*6F
1510934845.49,5788,8.31,73560.0,-3.39,-4.41,-4.33,0,*6E
1510934846.69,5789,8.31,73560.0,-3.39,-4.33,-4.29,0,*61
1510934847.88,5790,8.31,73556.8,-3.39,-4.33,-4.29,0,*69
1510934849.07,5791,8.31,73560.5,-3.39,-4.41,-4.33,0,*66
1510934850.26,5792,8.38,73556.3,-3.39,-4.33,-4.29,0,*6B
1510934851.45,5793,8.31,73554.0,-3.39,-4.41,-4.33,0,*64
1510934852.64,5794,8.31,73554.3,-3.39,-4.41,-4.41,0,*66
1510934853.82,5795,8.31,73556.5,-3.39,-4.53,-4.45,0,*60
1510934855.03,5796,8.31,73558.0,-3.37,-4.53,-4.45,0,*6D
1510934856.22,5797,8.38,73562.3,-3.39,-4.33,-4.45,0,*64
1510934857.4,5798,8.31,73556.5,-3.39,-4.45,-4.45,0,*6A
1510934858.58,5799,8.31,73558.3,-3.39,-4.45,-4.33,0,*6A
1510934859.79,5800,8.31,73560.0,-3.37,-4.45,-4.41,0,*6E
1510934860.97,5801,8.31,73556.5,-3.39,-4.45,-4.41,0,*61
1510934862.16,5802,8.31,73552.0,-3.39,-4.45,-4.41,0,*62
1510934863.34,5803,8.31,73550.0,-3.39,-4.45,-4.41,0,*63
1510934864.52,5804,8.31,73550.8,-3.39,-4.45,-4.33,0,*61
1510934865.73,5805,8.31,73554.0,-3.37,-4.45,-4.41,0,*6B
1510934866.91,5806,8.31,73554.3,-3.39,-4.45,-4.41,0,*66
1510934868.11,5807,8.31,73554.5,-3.39,-4.65,-4.65,0,*63
1510934869.32,5808,8.31,73558.0,-3.39,-4.69,-4.57,0,*61
1510934870.51,5809,8.31,73556.5,-3.39,-4.57,-4.57,0,*6D
1510934871.69,5810,8.31,73554.3,-3.39,-4.45,-4.41,0,*61
1510934872.89,5811,8.31,73560.8,-3.39,-4.33,-4.33,0,*64
1510934874.09,5812,8.31,73556.0,-3.43,-4.45,-4.49,0,*66
1510934875.28,5813,8.31,73554.5,-3.45,-4.53,-4.49,0,*66
1510934876.49,5814,8.31,73552.8,-3.43,-4.49,-4.57,0,*63
1510934877.71,5815,8.31,73550.0,-3.43,-4.57,-4.49,0,*62
1510934878.91,5816,8.31,73558.0,-3.43,-4.45,-4.45,0,*6E
1510934880.12,5817,8.31,73550.8,-3.43,-4.45,-4.37,0,*6A
1510934881.33,5818,8.31,73554.0,-3.43,-4.45,-4.37,0,*65
1510934882.53,5819,8.31,73554.5,-3.43,-4.45,-4.45,0,*61
1510934883.74,5820,8.31,73558.5,-3.43,-4.45,-4.37,0,*6E
1510934884.95,5821,8.31,73558.0,-3.43,-4.45,-4.49,0,*66
1510934886.13,5822,8.31,73558.3,-3.45,-4.53,-4.41,0,*6C
1510934887.34,5823,8.31,73558.0,-3.43,-4.49,-4.45,0,*64
1510934888.54,5824,8.31,73556.5,-3.43,-4.45,-4.45,0,*6F
1510934889.74,5825,8.31,73554.3,-3.43,-4.49,-4.45,0,*62
1510934890.95,5826,8.31,73558.0,-3.43,-4.45,-4.37,0,*68
1510934892.16,5827,8.31,73556.8,-3.43,-4.45,-4.45,0,*6C
1510934893.36,5828,8.31,73556.8,-3.43,-4.49,-4.45,0,*6F
1510934894.57,5829,8.31,73556.8,-3.43,-4.45,-4.45,0,*62
1510934895.78,5830,8.31,73556.3,-3.43,-4.49,-4.57,0,*65
1510934896.99,5831,8.31,73550.8,-3.43,-4.49,-4.37,0,*62
1510934898.2,5832,8.31,73554.5,-3.43,-4.49,-4.49,0,*68
1510934899.38,5833,8.31,73556.8,-3.45,-4.53,-4.45,0,*68
1510934900.59,5834,8.31,73558.3,-3.43,-4.37,-4.45,0,*6B
1510934901.8,5835,8.31,73556.5,-3.43,-4.49,-4.37,0,*66
1510934903.01,5836,8.31,73556.3,-3.43,-4.49,-4.37,0,*65
1510934904.22,5837,8.31,73556.3,-3.43,-4.49,-4.37,0,*64
1510934905.44,5838,8.31,73560.5,-3.43,-4.37,-4.37,0,*62
1510934906.62,5839,8.31,73560.3,-3.45,-4.41,-4.49,0,*6D
1510934907.83,5840,8.31,73560.5,-3.43,-4.45,-4.45,0,*6D
1510934909.03,5841,8.31,73560.5,-3.43,-4.45,-4.49,0,*60
1510934910.25,5842,8.31,73562.5,-3.43,-4.37,-4.37,0,*6F
1510934911.45,5843,8.31,73562.8,-3.43,-4.45,-4.37,0,*6B
1510934912.66,5844,8.31,73562.5,-3.43,-4.37,-4.33,0,*6D
1510934913.85,5845,8.31,73564.8,-3.45,-4.41,-4.37,0,*6F
1510934915.04,5846,8.31,73560.0,-3.45,-4.49,-4.41,0,*65
1510934916.25,5847,8.31,73554.8,-3.43,-4.25,-4.33,0,*6D
1510934917.47,5848,8.31,73556.5,-3.43,-4.25,-4.25,0,*65
1510934918.69,5849,8.31,73556.8,-3.43,-4.25,-4.29,0,*68